Weather History for Eagle Creek, IN

Change the Weather History Date:

Wednesday, October 26, 2011

  Actual Average Record
Temperature  
Mean Temperature 60 °F 52 °F  
Max Temperature 70 °F 61 °F 77 °F (2000)
Min Temperature 49 °F 42 °F 34 °F (2013)
Degree Days  
Heating Degree Days 5 14  
Month to date heating degree days 244 258  
Since 1 July heating degree days 366 319  
Cooling Degree Days 0 0  
Month to date cooling degree days 0 12  
Year to date cooling degree days 1280 1055  
Growing Degree Days 8 (Base 50)    
Moisture  
Dew Point 49 °F    
Average Humidity 68    
Maximum Humidity 93    
Minimum Humidity 42    
Precipitation  
Precipitation 0.07 in 0.10 in 0.36 in (2006)
Month to date precipitation 3.15 2.64  
Year to date precipitation 42.77 33.54  
Sea Level Pressure  
Sea Level Pressure 29.82 in    
Wind  
Wind Speed 10 mph (WNW)    
Max Wind Speed 21 mph    
Max Gust Speed 31 mph    
Visibility 8 miles    
Events Rain    
T = Trace of Precipitation, MM = Missing Value Source: NWS Daily Summary

Daily Weather History Graph

Daily Weather History Graph

Search for Another Location

Airport:

Trip Planner

Search our weather history database for the weather conditions in past years. The results will help you decide how hot, cold, wet, or windy it might be!

Date:

Astronomy

Oct. 26, 2011 Rise Set
Actual Time 8:06 AM EDT 6:50 PM EDT
Civil Twilight 7:39 AM EDT 7:18 PM EDT
Nautical Twilight 7:07 AM EDT 7:50 PM EDT
Astronomical Twilight 6:36 AM EDT 8:21 PM EDT
Moon 7:53 AM EDT (10/26) 6:32 PM EDT (10/26)
Length of Visible Light 11h 39m
Length of Day
10h 43m
Waning Crescent, 0% of the Moon is Illuminated
Oct 26
Waning Crescent
Oct 26
New
Nov 2
First Quarter
Nov 10
Full
Nov 18
Last Quarter

Hourly Weather History & Observations

Time (EDT) Temp. Dew Point Humidity Pressure Visibility Wind Dir Wind Speed Gust Speed Precip Events Conditions
12:53 AM 66.9 °F 43.0 °F 42% 29.84 in 10.0 mi SSW 13.8 mph 18.4 mph N/A   Overcast
1:53 AM 66.0 °F 45.0 °F 47% 29.83 in 10.0 mi SW 17.3 mph 25.3 mph 0.01 in Rain Light Rain
2:53 AM 63.0 °F 48.0 °F 58% 29.81 in 10.0 mi SW 13.8 mph 25.3 mph 0.01 in   Mostly Cloudy
3:53 AM 62.1 °F 48.0 °F 60% 29.80 in 10.0 mi SW 10.4 mph 21.9 mph N/A   Mostly Cloudy
4:53 AM 61.0 °F 48.0 °F 62% 29.80 in 10.0 mi SW 10.4 mph 17.3 mph N/A   Scattered Clouds
5:53 AM 61.0 °F 46.9 °F 60% 29.79 in 10.0 mi SW 11.5 mph 19.6 mph N/A   Overcast
7:53 AM 61.0 °F 46.9 °F 60% 29.81 in 10.0 mi SW 8.1 mph 17.3 mph N/A   Clear
8:53 AM 60.1 °F 48.0 °F 64% 29.82 in 10.0 mi SW 9.2 mph 17.3 mph N/A   Clear
9:53 AM 62.1 °F 48.9 °F 62% 29.82 in 10.0 mi SW 9.2 mph - N/A   Clear
11:53 AM 68.0 °F 52.0 °F 56% 29.81 in 10.0 mi West 9.2 mph 18.4 mph N/A   Clear
12:53 PM 68.0 °F 52.0 °F 56% 29.80 in 10.0 mi WSW 10.4 mph 19.6 mph N/A   Clear
1:53 PM 69.1 °F 53.1 °F 57% 29.78 in 10.0 mi Variable 5.8 mph - N/A   Scattered Clouds
2:53 PM 66.0 °F 55.9 °F 70% 29.78 in 10.0 mi WNW 11.5 mph - N/A   Overcast
3:53 PM 62.1 °F 52.0 °F 70% 29.81 in 9.0 mi NW 13.8 mph - N/A   Overcast
4:53 PM 57.0 °F 51.1 °F 81% 29.79 in 5.0 mi NNW 11.5 mph - N/A   Haze
5:16 PM 57.2 °F 51.8 °F 82% 29.82 in 5.0 mi NW 9.2 mph - N/A   Haze
5:53 PM 54.0 °F 50.0 °F 86% 29.82 in 4.0 mi NW 8.1 mph - N/A   Overcast
6:53 PM 53.1 °F 50.0 °F 89% 29.83 in 5.0 mi NNW 12.7 mph 18.4 mph N/A   Overcast
7:04 PM 51.8 °F 50.0 °F 94% 29.85 in 5.0 mi NNW 12.7 mph - N/A   Overcast
7:53 PM 51.1 °F 50.0 °F 96% 29.86 in 4.0 mi NW 10.4 mph - 0.00 in Rain Light Rain
8:53 PM 50.0 °F 48.9 °F 96% 29.86 in 5.0 mi NW 10.4 mph - 0.02 in Rain Light Rain
9:21 PM 50.0 °F 48.2 °F 94% 29.87 in 7.0 mi NW 8.1 mph - 0.01 in Rain Light Rain
9:53 PM 50.0 °F 48.0 °F 93% 29.86 in 7.0 mi NNW 8.1 mph - 0.01 in   Overcast
10:53 PM 50.0 °F 48.0 °F 93% 29.86 in 7.0 mi NNW 9.2 mph - 0.01 in Rain Light Rain
11:08 PM 48.2 °F 48.2 °F 100% 29.85 in 6.0 mi North 8.1 mph - 0.00 in Rain Light Rain
11:53 PM 48.9 °F 48.0 °F 97% 29.85 in 8.0 mi NNW 8.1 mph - 0.01 in   Overcast